Regional Weather Roundup
Issued by NWS

Home | Current Version | Previous Version | Graphics & Text | Print | Product List | Glossary On
Versions: 1 2 3 4 5 6 7 8 9 10 11 12 13 14 15 16 17 18 19 20 21 22 23 24 25 26 27 28 29 30 31 32 33 34 35 36 37 38 39 40 41 42 43 44 45 46 47 48 49 50
000
ASUS43 KBIS 020910
RWRND

NORTH DAKOTA REGIONAL WEATHER ROUNDUP
NATIONAL WEATHER SERVICE BISMARCK ND
400 AM CDT TUE JUN 02 2015

NOTE: "FAIR" INDICATES FEW OR NO CLOUDS BELOW 12,000 FEET WITH NO
SIGNIFICANT WEATHER AND/OR OBSTRUCTIONS TO VISIBILITY.


NDZ001>003-009>011-017-021000-
NORTHWEST NORTH DAKOTA

CITY           SKY/WX    TMP DP  RH WIND       PRES   REMARKS
WILLISTON      CLOUDY    63  56  78 NE12      29.82F
MINOT          CLOUDY    59  57  93 NW6       29.81R
MINOT AFB      CLOUDY    59  59 100 NE3       29.80R
$$

NDZ018>021-031>035-040>046-021000-
SOUTHWEST NORTH DAKOTA

CITY           SKY/WX    TMP DP  RH WIND       PRES   REMARKS
BISMARCK       LGT RAIN  62  58  86 N7        29.84S
DICKINSON      LGT RAIN  59  56  89 NE17      29.82F
GARRISON         N/A     61  57  87 E12       29.79F
HETTINGER ARPT CLOUDY    61  55  81 NE22G28   29.83R
$$

NDZ004>008-012>016-024-026-027-054-021000-
NORTHEAST NORTH DAKOTA

CITY           SKY/WX    TMP DP  RH WIND       PRES   REMARKS
GRAND FORKS    LGT RAIN  57  54  89 S8        29.85F
GRND FRKS AFB  LGT RAIN  57  54  88 S15       29.83F
DEVILS LAKE    CLOUDY    63  55  77 E13       29.82R
$$

NDZ022-023-025-028>030-036>039-047>053-021000-
SOUTHEAST NORTH DAKOTA

CITY           SKY/WX    TMP DP  RH WIND       PRES   REMARKS
FARGO          CLOUDY    63  46  54 SE15G25   29.87S
JAMESTOWN      CLOUDY    64  54  69 S18       29.78F
$$




USA.gov is the U.S. government's official web portal to all federal, state and local government web resources and services.